Location: Burgberg
(50.1428°N, 11.0671°E)
Time: 15:59:20
(UTC+00:00)

CZ-4B R/B - Pass Details

Date: 26 January 2020
Orbit: 487 x 652 km, 97.9° (Epoch: 18 February)

Event Time Altitude Azimuth Distance (km) Brightness Sun altitude
Rises 04:31:54 0° 10° (N) 2,921 6.6 -23.3°
Reaches altitude 10° 04:34:10 10° 7° (N) 1,988 5.7 -22.9°
Enters shadow 04:36:58 37° 349° (NNW) 947 3.8 -22.5°
